Location: Dallas
(32.7833°N, 96.8000°W)
Time: 16:15:49
(UTC-05:00)

Tianhe-1 - Visible Passes

Search period start: 20 June 2021 00:00
Search period end: 30 June 2021 00:00
Orbit: 375 x 386 km, 41.5° (Epoch: 20 June)

Date Brightness Start Highest point End Pass type
(mag) Time Alt. Az. Time Alt. Az. Time Alt. Az.
20 Jun 2.9 03:58:02 28° ENE 03:58:02 28° ENE 03:59:44 10° ENE visible
20 Jun 2.9 05:30:51 10° WNW 05:33:32 25° NNW 05:36:13 10° NE visible
21 Jun 2.2 04:31:49 33° NW 04:32:25 37° NNW 04:35:23 10° NE visible
22 Jun 3.8 03:33:28 19° NE 03:33:28 19° NE 03:34:31 10° ENE visible
22 Jun 3.4 05:06:06 10° WNW 05:08:29 20° N 05:10:53 10° NE visible
23 Jun 2.9 04:07:14 25° NNW 04:07:19 25° NNW 04:10:01 10° NE visible
23 Jun 3.8 05:42:36 10° NW 05:44:43 16° N 05:46:50 10° NE visible
24 Jun 4.5 03:08:52 12° NE 03:08:52 12° NE 03:09:10 10° NE visible
24 Jun 3.7 04:41:18 10° NW 04:43:28 17° N 04:45:39 10° NE visible
25 Jun 3.6 03:42:38 19° N 03:42:38 19° N 03:44:40 10° NE visible
25 Jun 3.8 05:17:29 10° NW 05:19:42 17° N 05:21:55 10° NE visible
26 Jun 3.9 04:16:28 10° NW 04:18:27 16° N 04:20:33 10° NE visible
27 Jun 4.3 03:18:15 15° NNE 03:18:15 15° NNE 03:19:22 10° NE visible
27 Jun 3.7 04:52:11 10° NW 04:54:38 20° NNE 04:57:06 10° ENE visible
28 Jun 3.8 03:52:20 15° NNW 03:53:24 17° N 03:55:35 10° NE visible
28 Jun 2.4 05:27:39 10° NW 05:30:38 41° NNE 05:33:39 10° E visible
29 Jun 3.2 04:26:47 10° NW 04:29:31 27° NNE 04:32:14 10° ENE visible
